Clarinda, IA

7:22 AM CST on December 12, 2017 (GMT -0600)
Schenck

Weather History for KICL - April, 2014

Change the Weather History Date:

Friday, April 4, 2014

  Actual Average Record
Temperature  
Mean Temperature 35 °F -  
Max Temperature 44 °F 57 °F 80 °F (2005)
Min Temperature 26 °F 34 °F 15 °F (2002)
Degree Days  
Heating Degree Days 30    
Moisture  
Dew Point 31 °F    
Average Humidity 82    
Maximum Humidity 100    
Minimum Humidity 57    
Precipitation  
Precipitation 0.01 in - - ()
Sea Level Pressure  
Sea Level Pressure 30.01 in    
Wind  
Wind Speed 17 mph (NW)    
Max Wind Speed 23 mph    
Max Gust Speed 33 mph    
Visibility 10 miles    
Events Snow    
Averages and records for this station are not official NWS values.
T = Trace of Precipitation, MM = Missing Value Source: NWS Daily Summary

Daily Weather History Graph

Daily Weather History Graph

Search for Another Location

Airport or City:

Trip Planner

Search our weather history database for the weather conditions in past years. The results will help you decide how hot, cold, wet, or windy it might be!

Date:

Astronomy

Apr. 04, 2014 Rise Set
Actual Time 6:58 AM CDT 7:48 PM CDT
Civil Twilight 6:30 AM CDT 8:15 PM CDT
Nautical Twilight 5:58 AM CDT 8:48 PM CDT
Astronomical Twilight 5:24 AM CDT 9:23 PM CDT
Moon 10:15 AM CDT (4/4) 12:08 AM CDT (4/4)
Length of Visible Light 13h 44m
Length of Day
12h 49m
Waxing Crescent, 25% of the Moon is Illuminated
Apr 4
Waxing Crescent
Apr 7
First Quarter
Apr 15
Full
Apr 22
Last Quarter
Apr 29
New

Hourly Weather History & Observations

Time (CDT) Temp. Windchill Dew Point Humidity Pressure Visibility Wind Dir Wind Speed Gust Speed Precip Events Conditions
12:15 AM 33.8 °F 22.8 °F 33.8 °F 100% 29.74 in 4.0 mi WNW 18.4 mph - N/A Snow Light Snow
12:35 AM 33.8 °F 22.5 °F 33.8 °F 100% 29.75 in 5.0 mi WNW 19.6 mph 28.8 mph N/A Snow Light Snow
12:55 AM 33.8 °F 21.9 °F 32.0 °F 93% 29.76 in 7.0 mi WNW 21.9 mph 28.8 mph 0.01 in Snow Light Snow
1:15 AM 33.8 °F 22.8 °F 32.0 °F 93% 29.78 in 9.0 mi WNW 18.4 mph 25.3 mph N/A Snow Light Snow
1:35 AM 33.8 °F 22.8 °F 32.0 °F 93% 29.79 in 10.0 mi NW 18.4 mph 28.8 mph N/A   Overcast
1:55 AM 33.8 °F 22.8 °F 32.0 °F 93% 29.79 in 10.0 mi WNW 18.4 mph 28.8 mph N/A   Overcast
2:15 AM 33.8 °F 21.9 °F 32.0 °F 93% 29.79 in 10.0 mi NW 21.9 mph - N/A   Overcast
2:35 AM 33.8 °F 22.2 °F 32.0 °F 93% 29.79 in 10.0 mi NW 20.7 mph 26.5 mph N/A   Overcast
2:55 AM 33.8 °F 22.5 °F 32.0 °F 93% 29.79 in 10.0 mi NW 19.6 mph 28.8 mph N/A   Overcast
3:15 AM 33.8 °F 22.2 °F 32.0 °F 93% 29.80 in 10.0 mi NW 20.7 mph 26.5 mph N/A   Overcast
3:35 AM 33.8 °F 22.2 °F 32.0 °F 93% 29.80 in 10.0 mi NW 20.7 mph - N/A   Overcast
3:55 AM 33.8 °F 24.3 °F 32.0 °F 93% 29.82 in 10.0 mi NW 13.8 mph 24.2 mph N/A   Overcast
4:15 AM 33.8 °F 23.2 °F 32.0 °F 93% 29.82 in 10.0 mi NW 17.3 mph - N/A   Overcast
4:35 AM 33.8 °F 23.5 °F 30.2 °F 87% 29.84 in 10.0 mi NW 16.1 mph 29.9 mph N/A   Overcast
4:55 AM 33.8 °F 22.5 °F 30.2 °F 87% 29.86 in 10.0 mi NW 19.6 mph 28.8 mph N/A   Overcast
5:15 AM 33.8 °F 22.2 °F 30.2 °F 87% 29.86 in 10.0 mi NW 20.7 mph 26.5 mph N/A   Overcast
5:35 AM 35.6 °F 24.8 °F 30.2 °F 81% 29.87 in 10.0 mi NW 19.6 mph 27.6 mph N/A   Overcast
5:55 AM 35.6 °F 25.9 °F 32.0 °F 87% 29.88 in 10.0 mi NW 16.1 mph - N/A   Overcast
6:15 AM 35.6 °F 24.5 °F 32.0 °F 87% 29.88 in 10.0 mi NW 20.7 mph 27.6 mph N/A   Overcast
6:35 AM 35.6 °F 24.5 °F 32.0 °F 87% 29.90 in 10.0 mi NW 20.7 mph 29.9 mph N/A   Overcast
6:55 AM 35.6 °F 24.2 °F 32.0 °F 87% 29.91 in 10.0 mi NW 21.9 mph - N/A   Overcast
7:15 AM 35.6 °F 25.2 °F 32.0 °F 87% 29.93 in 10.0 mi NW 18.4 mph 27.6 mph N/A   Overcast
7:35 AM 35.6 °F 25.9 °F 32.0 °F 87% 29.94 in 10.0 mi NW 16.1 mph 28.8 mph N/A   Overcast
7:55 AM 35.6 °F 25.5 °F 32.0 °F 87% 29.95 in 10.0 mi NW 17.3 mph 27.6 mph N/A   Overcast
8:15 AM 35.6 °F 24.8 °F 30.2 °F 81% 29.96 in 10.0 mi NW 19.6 mph 26.5 mph N/A   Overcast
8:35 AM 35.6 °F 24.2 °F 30.2 °F 81% 29.97 in 10.0 mi NW 21.9 mph 29.9 mph N/A   Overcast
8:55 AM 35.6 °F 25.5 °F 32.0 °F 87% 29.98 in 10.0 mi NW 17.3 mph 29.9 mph N/A   Overcast
9:15 AM 35.6 °F 24.2 °F 32.0 °F 87% 29.99 in 10.0 mi NW 21.9 mph - N/A   Overcast
9:35 AM 35.6 °F 25.9 °F 32.0 °F 87% 30.00 in 10.0 mi NW 16.1 mph 28.8 mph N/A   Overcast
9:55 AM 35.6 °F 25.2 °F 32.0 °F 87% 30.01 in 10.0 mi NW 18.4 mph 25.3 mph N/A   Overcast
10:15 AM 35.6 °F 25.2 °F 32.0 °F 87% 30.01 in 10.0 mi NW 18.4 mph 27.6 mph N/A   Overcast
10:35 AM 35.6 °F 25.9 °F 32.0 °F 87% 30.02 in 10.0 mi NW 16.1 mph 25.3 mph N/A   Overcast
10:55 AM 37.4 °F 27.2 °F 32.0 °F 81% 30.03 in 10.0 mi NW 19.6 mph 26.5 mph N/A   Overcast
11:15 AM 37.4 °F 27.2 °F 32.0 °F 81% 30.04 in 10.0 mi NW 19.6 mph 31.1 mph N/A   Overcast
11:35 AM 37.4 °F 26.9 °F 32.0 °F 81% 30.05 in 10.0 mi NW 20.7 mph 32.2 mph N/A   Overcast
11:55 AM 37.4 °F 27.2 °F 32.0 °F 81% 30.06 in 10.0 mi NW 19.6 mph 31.1 mph N/A   Overcast
12:15 PM 37.4 °F 26.9 °F 32.0 °F 81% 30.06 in 10.0 mi NW 20.7 mph 29.9 mph N/A   Overcast
12:35 PM 39.2 °F 29.3 °F 32.0 °F 75% 30.07 in 10.0 mi NW 20.7 mph 31.1 mph N/A   Overcast
1:15 PM 39.2 °F 29.3 °F 32.0 °F 75% 30.07 in 10.0 mi NW 20.7 mph 28.8 mph N/A   Overcast
1:35 PM 39.2 °F 30.2 °F 32.0 °F 75% 30.09 in 10.0 mi NNW 17.3 mph 26.5 mph N/A   Overcast
1:55 PM 41.0 °F 31.6 °F 32.0 °F 70% 30.08 in 10.0 mi NNW 20.7 mph 29.9 mph N/A   Overcast
2:15 PM 41.0 °F 31.1 °F 30.2 °F 65% 30.09 in 10.0 mi NNW 23.0 mph 33.4 mph N/A   Overcast
2:35 PM 41.0 °F 31.9 °F 32.0 °F 70% 30.09 in 10.0 mi NW 19.6 mph - N/A   Overcast
2:55 PM 41.0 °F 32.2 °F 30.2 °F 65% 30.09 in 10.0 mi NW 18.4 mph 27.6 mph N/A   Overcast
3:15 PM 41.0 °F 31.6 °F 30.2 °F 65% 30.09 in 10.0 mi NW 20.7 mph 26.5 mph N/A   Overcast
3:55 PM 42.8 °F 34.5 °F 30.2 °F 61% 30.08 in 10.0 mi NNW 18.4 mph 24.2 mph N/A   Overcast
4:15 PM 44.6 °F 37.4 °F 30.2 °F 57% 30.09 in 10.0 mi NW 16.1 mph 26.5 mph N/A   Mostly Cloudy
4:35 PM 42.8 °F 35.8 °F 30.2 °F 61% 30.10 in 10.0 mi NW 13.8 mph 24.2 mph N/A   Mostly Cloudy
4:55 PM 42.8 °F 35.1 °F 32.0 °F 66% 30.10 in 10.0 mi NW 16.1 mph - N/A   Mostly Cloudy
5:15 PM 42.8 °F 35.8 °F 30.2 °F 61% 30.10 in 10.0 mi NW 13.8 mph 19.6 mph N/A   Overcast
5:35 PM 41.0 °F 33.9 °F 30.2 °F 65% 30.11 in 10.0 mi NW 12.7 mph 23.0 mph N/A   Overcast
5:55 PM 41.0 °F 33.1 °F 30.2 °F 65% 30.11 in 10.0 mi NNW 15.0 mph - N/A   Overcast
6:15 PM 41.0 °F 34.3 °F 30.2 °F 65% 30.12 in 10.0 mi NW 11.5 mph - N/A   Overcast
6:35 PM 41.0 °F 34.7 °F 30.2 °F 65% 30.12 in 10.0 mi NW 10.4 mph - N/A   Overcast
6:55 PM 41.0 °F 34.7 °F 30.2 °F 65% 30.13 in 10.0 mi NNW 10.4 mph - N/A   Overcast
7:15 PM 41.0 °F 35.2 °F 30.2 °F 65% 30.13 in 10.0 mi NW 9.2 mph - N/A   Overcast
7:35 PM 41.0 °F 36.4 °F 30.2 °F 65% 30.14 in 10.0 mi NW 6.9 mph - N/A   Overcast
7:55 PM 39.2 °F 33.6 °F 30.2 °F 70% 30.14 in 10.0 mi NNW 8.1 mph - N/A   Overcast
8:15 PM 37.4 °F 32.1 °F 28.4 °F 70% 30.14 in 10.0 mi NNW 6.9 mph - N/A   Mostly Cloudy
8:35 PM 35.6 °F 29.2 °F 28.4 °F 75% 30.15 in 10.0 mi North 8.1 mph - N/A   Partly Cloudy
8:55 PM 33.8 °F 29.6 °F 28.4 °F 81% 30.15 in 10.0 mi NNE 4.6 mph - N/A   Clear
9:15 PM 32.0 °F 27.5 °F 28.4 °F 87% 30.16 in 10.0 mi NNE 4.6 mph - N/A   Partly Cloudy
9:35 PM 32.0 °F 26.4 °F 28.4 °F 87% 30.17 in 10.0 mi North 5.8 mph - N/A   Clear
9:55 PM 28.4 °F 23.3 °F 26.6 °F 93% 30.18 in 10.0 mi North 4.6 mph - N/A   Clear
10:15 PM 30.2 °F - 28.4 °F 93% 30.18 in 10.0 mi Calm Calm - N/A   Clear
10:35 PM 28.4 °F - 26.6 °F 93% 30.18 in 10.0 mi Calm Calm - N/A   Clear
10:55 PM 28.4 °F - 26.6 °F 93% 30.18 in 10.0 mi Calm Calm - N/A   Clear
11:15 PM 26.6 °F - 24.8 °F 93% 30.18 in 10.0 mi Calm Calm - N/A   Clear
11:35 PM 26.6 °F 21.2 °F 24.8 °F 93% 30.19 in 10.0 mi South 4.6 mph - N/A   Clear
11:55 PM 26.6 °F - 24.8 °F 93% 30.18 in 10.0 mi Calm Calm - N/A   Clear